Soldotna, AK

10:23 AM AKDT on October 20, 2017 (GMT -0800)
Soldotna

Weather History for PASX - January, 2013

Change the Weather History Date:

Saturday, January 12, 2013

  Actual Average Record
Temperature  
Mean Temperature 29 °F -  
Max Temperature 35 °F 18 °F 41 °F (2003)
Min Temperature 23 °F 0 °F -40 °F (1972)
Degree Days  
Heating Degree Days 36    
Moisture  
Dew Point 28 °F    
Average Humidity 93    
Maximum Humidity 100    
Minimum Humidity 86    
Precipitation  
Precipitation 0.15 in - - ()
Sea Level Pressure  
Sea Level Pressure 29.95 in    
Wind  
Wind Speed 1 mph (West)    
Max Wind Speed 8 mph    
Max Gust Speed -    
Visibility 8 miles    
Events      
Averages and records for this station are not official NWS values.
T = Trace of Precipitation, MM = Missing Value Source: NWS Daily Summary

Daily Weather History Graph

Daily Weather History Graph

Search for Another Location

Airport or City:

Trip Planner

Search our weather history database for the weather conditions in past years. The results will help you decide how hot, cold, wet, or windy it might be!

Date:

Astronomy

Jan. 12, 2013 Rise Set
Actual Time 9:59 AM AKST 4:26 PM AKST
Civil Twilight 9:04 AM AKST 5:21 PM AKST
Nautical Twilight 8:08 AM AKST 6:17 PM AKST
Astronomical Twilight 7:17 AM AKST 7:08 PM AKST
Moon 9:50 AM AKST (1/12) 6:48 PM AKST (1/12)
Length of Visible Light 8h 17m
Length of Day
6h 27m
New Moon, 2% of the Moon is Illuminated
Jan 12
New Moon
Jan 18
First Quarter
Jan 26
Full
Feb 3
Last Quarter
Feb 9
New

Hourly Weather History & Observations

Time (AKST) Temp. Windchill Dew Point Humidity Pressure Visibility Wind Dir Wind Speed Gust Speed Precip Events Conditions
12:16 AM 23.0 °F - 21.2 °F 93% 30.09 in 10.0 mi Calm Calm - N/A   Overcast
12:36 AM 24.8 °F - 21.2 °F 86% 30.10 in 10.0 mi Calm Calm - N/A   Overcast
12:56 AM 24.8 °F - 21.2 °F 86% 30.10 in 10.0 mi Calm Calm - N/A   Overcast
1:16 AM 24.8 °F - 21.2 °F 86% 30.10 in 10.0 mi Calm Calm - N/A   Overcast
1:36 AM 23.0 °F - 21.2 °F 93% 30.09 in 10.0 mi Calm Calm - N/A   Overcast
1:56 AM 24.8 °F - 21.2 °F 86% 30.09 in 10.0 mi Calm Calm - N/A   Overcast
2:16 AM 24.8 °F - 23.0 °F 93% 30.10 in 10.0 mi Calm Calm - N/A   Overcast
2:36 AM 24.8 °F - 21.2 °F 86% 30.10 in 10.0 mi Calm Calm - N/A   Overcast
2:56 AM 24.8 °F - 21.2 °F 86% 30.10 in 10.0 mi Calm Calm - N/A   Overcast
3:16 AM 24.8 °F - 23.0 °F 93% 30.09 in 10.0 mi Calm Calm - N/A   Overcast
3:36 AM 24.8 °F - 24.8 °F 100% 30.08 in 10.0 mi Calm Calm - N/A   Overcast
3:56 AM 26.6 °F - 24.8 °F 93% 30.08 in 10.0 mi Calm Calm - N/A   Overcast
4:16 AM 24.8 °F - 24.8 °F 100% 30.06 in 10.0 mi Calm Calm - N/A   Overcast
4:36 AM 24.8 °F - 24.8 °F 100% 30.05 in 10.0 mi Calm Calm - N/A   Overcast
4:56 AM 26.6 °F - 24.8 °F 93% 30.05 in 10.0 mi Calm Calm - N/A   Overcast
5:16 AM 24.8 °F - 23.0 °F 93% 30.03 in 10.0 mi Calm Calm - N/A   Overcast
5:36 AM 24.8 °F - 21.2 °F 86% 30.01 in 10.0 mi Calm Calm - N/A   Overcast
5:56 AM 24.8 °F - 23.0 °F 93% 30.00 in 10.0 mi Calm Calm - N/A   Overcast
6:16 AM 24.8 °F - 23.0 °F 93% 29.99 in 10.0 mi Calm Calm - N/A   Overcast
6:36 AM 24.8 °F - 23.0 °F 93% 30.00 in 10.0 mi Calm Calm - N/A   Overcast
6:56 AM 24.8 °F - 21.2 °F 86% 29.99 in 10.0 mi Calm Calm - N/A   Overcast
7:16 AM 24.8 °F - 23.0 °F 93% 29.98 in 10.0 mi Calm Calm - N/A   Overcast
7:36 AM 24.8 °F - 23.0 °F 93% 29.98 in 10.0 mi Calm Calm - N/A   Overcast
7:56 AM 26.6 °F - 24.8 °F 93% 29.97 in 10.0 mi Calm Calm - N/A   Overcast
8:16 AM 26.6 °F - 24.8 °F 93% 29.98 in 10.0 mi Calm Calm - N/A   Overcast
8:36 AM 26.6 °F - 24.8 °F 93% 29.98 in 10.0 mi Calm Calm - N/A   Overcast
8:56 AM 26.6 °F - 26.6 °F 100% 29.96 in 10.0 mi Calm Calm - N/A   Overcast
9:16 AM 28.4 °F - 26.6 °F 93% 29.97 in 9.0 mi Calm Calm - N/A   Overcast
9:36 AM 28.4 °F - 26.6 °F 93% 29.98 in 7.0 mi Calm Calm - N/A   Mostly Cloudy
9:56 AM 28.4 °F - 28.4 °F 100% 29.97 in 5.0 mi Calm Calm - N/A   Scattered Clouds
10:16 AM 30.2 °F - 28.4 °F 93% 29.97 in 5.0 mi Calm Calm - N/A   Scattered Clouds
10:36 AM 30.2 °F - 28.4 °F 93% 29.97 in 8.0 mi Calm Calm - N/A   Mostly Cloudy
10:56 AM 30.2 °F - 28.4 °F 93% 29.98 in 5.0 mi Calm Calm - N/A   Mostly Cloudy
11:16 AM 30.2 °F - 30.2 °F 100% 29.96 in 4.0 mi Calm Calm - N/A   Mostly Cloudy
11:36 AM 30.2 °F - 30.2 °F 100% 29.96 in 5.0 mi Calm Calm - 0.01 in   Overcast
11:56 AM 32.0 °F - 30.2 °F 93% 29.96 in 5.0 mi Calm Calm - 0.02 in   Overcast
12:16 PM 32.0 °F - 30.2 °F 93% 29.96 in 3.0 mi Calm Calm - N/A   Mostly Cloudy
12:36 PM 32.0 °F - 30.2 °F 93% 29.96 in 6.0 mi Calm Calm - N/A   Mostly Cloudy
12:56 PM 32.0 °F - 30.2 °F 93% 29.96 in 4.0 mi Calm Calm - 0.01 in   Overcast
1:16 PM 32.0 °F - 30.2 °F 93% 29.94 in 3.0 mi Calm Calm - 0.01 in   Mostly Cloudy
1:36 PM 32.0 °F - 30.2 °F 93% 29.94 in 1.8 mi Calm Calm - 0.03 in   Overcast
1:56 PM 32.0 °F - 32.0 °F 100% 29.93 in 4.0 mi Calm Calm - 0.05 in   Mostly Cloudy
2:16 PM 32.0 °F - 30.2 °F 93% 29.92 in 3.0 mi Calm Calm - 0.02 in   Mostly Cloudy
2:36 PM 33.8 °F - 32.0 °F 93% 29.91 in 8.0 mi Calm Calm - 0.02 in   Overcast
2:56 PM 33.8 °F - 32.0 °F 93% 29.90 in 8.0 mi Calm Calm - 0.03 in   Mostly Cloudy
3:16 PM 33.8 °F - 32.0 °F 93% 29.89 in 8.0 mi Calm Calm - N/A   Overcast
3:36 PM 33.8 °F 28.6 °F 32.0 °F 93% 29.89 in 10.0 mi West 5.8 mph - N/A   Mostly Cloudy
3:56 PM 33.8 °F 30.8 °F 32.0 °F 93% 29.89 in 10.0 mi West 3.5 mph - N/A   Overcast
4:16 PM 33.8 °F 30.8 °F 32.0 °F 93% 29.88 in 10.0 mi West 3.5 mph - N/A   Mostly Cloudy
4:36 PM 33.8 °F - 32.0 °F 93% 29.87 in 10.0 mi Calm Calm - 0.01 in   Mostly Cloudy
4:56 PM 33.8 °F - 32.0 °F 93% 29.88 in 10.0 mi Calm Calm - 0.01 in   Overcast
5:16 PM 33.8 °F - 32.0 °F 93% 29.86 in 10.0 mi Calm Calm - N/A   Mostly Cloudy
5:36 PM 33.8 °F - 32.0 °F 93% 29.85 in 10.0 mi Calm Calm - N/A   Overcast
5:56 PM 33.8 °F - 32.0 °F 93% 29.85 in 10.0 mi Calm Calm - N/A   Overcast
6:16 PM 33.8 °F 29.6 °F 32.0 °F 93% 29.85 in 10.0 mi West 4.6 mph - N/A   Mostly Cloudy
6:36 PM 33.8 °F 29.6 °F 32.0 °F 93% 29.86 in 7.0 mi WNW 4.6 mph - N/A   Mostly Cloudy
6:56 PM 33.8 °F 30.8 °F 30.2 °F 87% 29.86 in 7.0 mi West 3.5 mph - 0.01 in   Partly Cloudy
7:16 PM 33.8 °F 29.6 °F 33.8 °F 100% 29.86 in 9.0 mi West 4.6 mph - N/A   Scattered Clouds
7:36 PM 33.8 °F 30.8 °F 32.0 °F 93% 29.85 in 5.0 mi West 3.5 mph - 0.01 in   Mostly Cloudy
7:56 PM 33.8 °F - 32.0 °F 93% 29.85 in 2.5 mi Calm Calm - 0.01 in   Mostly Cloudy
8:16 PM 33.8 °F - 32.0 °F 93% 29.84 in 10.0 mi Calm Calm - N/A   Overcast
8:36 PM 33.8 °F - 32.0 °F 93% 29.84 in 7.0 mi Calm Calm - N/A   Mostly Cloudy
8:56 PM 33.8 °F 28.6 °F 32.0 °F 93% 29.85 in 3.0 mi West 5.8 mph - 0.01 in   Mostly Cloudy
9:16 PM 32.0 °F 27.5 °F 32.0 °F 100% 29.85 in 5.0 mi WSW 4.6 mph - N/A   Mostly Cloudy
9:36 PM 33.8 °F 29.6 °F 32.0 °F 93% 29.84 in 6.0 mi SSW 4.6 mph - N/A   Mostly Cloudy
9:56 PM 33.8 °F 30.8 °F 33.8 °F 100% 29.82 in 10.0 mi SSE 3.5 mph - N/A   Mostly Cloudy
10:16 PM 35.6 °F - 33.8 °F 93% 29.82 in 10.0 mi Calm Calm - N/A   Overcast
10:36 PM 35.6 °F - 33.8 °F 93% 29.82 in 10.0 mi Calm Calm - N/A   Overcast
10:56 PM 35.6 °F 32.8 °F 33.8 °F 93% 29.80 in 10.0 mi North 3.5 mph - N/A   Overcast
11:16 PM 35.6 °F 31.7 °F 33.8 °F 93% 29.80 in 10.0 mi West 4.6 mph - N/A   Mostly Cloudy
11:36 PM 33.8 °F 27.0 °F 33.8 °F 100% 29.79 in 10.0 mi West 8.1 mph - N/A   Mostly Cloudy
11:56 PM 33.8 °F 27.7 °F 33.8 °F 100% 29.78 in 10.0 mi WNW 6.9 mph - N/A   Mostly Cloudy